{"data":{"norad_id":48595,"intl_designator":"2021-041AU","name":"STARLINK-2252","alt_names":[],"object_type":"PAYLOAD","status":"ACTIVE","operator":null,"country":"US","launch_date":"2021-05-15","launch_site_code":"AFETR","launch_vehicle":null,"mission":null,"orbit_class":"UNKNOWN","rcs_meters":null,"size_class":null,"mass_kg":null,"dimensions":null,"purposes":["comms"],"wikipedia_slug":null,"has_3d_model":false,"image_url":null,"decayed_at":null,"tle_current":{"epoch":"2026-05-25T00:24:39.230208Z","epoch_age_seconds":70232,"freshness":"FRESH","line1":"1 48595U 21041AU  26145.01712072  .00001894  00000+0  72749-4 0  9991","line2":"2 48595  53.1598 153.9027 0001226  78.9599 281.1540 15.31711290277916","mean_motion":15.3171129,"eccentricity":0.0001226,"inclination_deg":53.1598,"raan_deg":153.9027,"arg_perigee_deg":78.9599,"mean_anomaly_deg":281.154,"bstar":7.2749e-5,"rev_number":27791,"period_min":94.012495004852,"perigee_km":469.8666723363,"apogee_km":471.5460087234,"semimajor_km":6848.8433405299,"source":"CELESTRAK","updated_at":"2026-05-25T13:38:16.751355Z"}}}